Location: East Horndon
(51.5667°N, 0.3500°E)
Time: 06:13:05
(UTC+00:00)

Cosmos 1869 - Pass Details

Date: 08 November 2025
Orbit: 453 x 480 km, 82.5° (Epoch: 11 December)

Event Time Altitude Azimuth Distance (km) Brightness Sun altitude
Rises 06:10:42 0° 344° (NNW) 2,489 6.4 -8.7°
Reaches altitude 10° 06:12:51 10° 337° (NNW) 1,606 5.3 -8.4°
Maximum altitude 06:16:10 42° 266° (W) 661 3.3 -7.9°
Drops below altitude 10° 06:19:28 10° 194° (SSW) 1,588 5.7 -7.4°
Sets 06:21:28 0° 187° (S) 2,412 6.7 -7.1°
